International Skating Union - Official Site

ISU World Cup Berlin
December 5-7, 2014

Draw | Lap Times | Index | World Cup

Referee: Erik  ØSMUNDSET  (NOR)
Starter: Åke  FALK  (SWE)
StartTime: EndTime: Air Temp: Ice Temp: Humidity:
14:15 15:20 14.8℃ -6.6℃ 31.1%
Result 5000m Men Division A
Rankings as of Dec 7 2014 4:36PM
Rank: No.: Name: Nation: Time: Behind: Points:
1 84 Jorrit  Bergsma NED NED 6:17.59200m - 19.34 - (19.3)
600m - 48.93 - (29.5)
1000m - 1:18.80 - (29.8)
1400m - 1:48.68 - (29.8)
1800m - 2:18.75 - (30.0)
2200m - 2:48.80 - (30.0)
2600m - 3:19.01 - (30.2)
3000m - 3:48.89 - (29.8)
3400m - 4:18.58 - (29.6)
3800m - 4:48.10 - (29.5)
4200m - 5:17.87 - (29.7)
4600m - 5:47.64 - (29.7)
5000m - 6:17.59 - (29.9)
100
2 103 Sverre  Lunde Pedersen NOR NOR 6:20.97200m - 18.72 - (18.7)
600m - 48.50 - (29.7)
1000m - 1:18.59 - (30.0)
1400m - 1:48.78 - (30.1)
1800m - 2:18.99 - (30.2)
2200m - 2:49.25 - (30.2)
2600m - 3:19.38 - (30.1)
3000m - 3:49.59 - (30.2)
3400m - 4:19.92 - (30.3)
3800m - 4:50.22 - (30.3)
4200m - 5:20.45 - (30.2)
4600m - 5:50.69 - (30.2)
5000m - 6:20.97 - (30.2)
3.38 80
3 86 Douwe  de Vries NED NED 6:23.50200m - 19.13 - (19.1)
600m - 48.58 - (29.4)
1000m - 1:18.44 - (29.8)
1400m - 1:48.59 - (30.1)
1800m - 2:18.93 - (30.3)
2200m - 2:49.22 - (30.2)
2600m - 3:19.67 - (30.4)
3000m - 3:50.14 - (30.4)
3400m - 4:20.85 - (30.7)
3800m - 4:51.65 - (30.8)
4200m - 5:22.36 - (30.7)
4600m - 5:52.95 - (30.5)
5000m - 6:23.50 - (30.5)
5.91 70
4 85 Bob  de Jong NED NED 6:25.27200m - 19.19 - (19.1)
600m - 48.89 - (29.7)
1000m - 1:19.52 - (30.6)
1400m - 1:50.31 - (30.7)
1800m - 2:20.84 - (30.5)
2200m - 2:51.11 - (30.2)
2600m - 3:21.25 - (30.1)
3000m - 3:51.70 - (30.4)
3400m - 4:22.23 - (30.5)
3800m - 4:53.22 - (30.9)
4200m - 5:24.03 - (30.8)
4600m - 5:55.02 - (30.9)
5000m - 6:25.27 - (30.2)
7.68 60
5 5 Bart  Swings BEL BEL 6:25.50200m - 19.33 - (19.3)
600m - 49.34 - (30.0)
1000m - 1:19.33 - (29.9)
1400m - 1:49.67 - (30.3)
1800m - 2:19.83 - (30.1)
2200m - 2:50.20 - (30.3)
2600m - 3:20.47 - (30.2)
3000m - 3:50.90 - (30.4)
3400m - 4:21.43 - (30.5)
3800m - 4:51.99 - (30.5)
4200m - 5:22.93 - (30.9)
4600m - 5:53.93 - (31.0)
5000m - 6:25.50 - (31.5)
7.91 50
6 127 Aleksandr  Rumyantsev RUS RUS 6:26.37200m - 19.41 - (19.4)
600m - 49.59 - (30.1)
1000m - 1:21.05 - (31.4)
1400m - 1:51.76 - (30.7)
1800m - 2:22.04 - (30.2)
2200m - 2:52.51 - (30.4)
2600m - 3:22.92 - (30.4)
3000m - 3:53.21 - (30.2)
3400m - 4:23.85 - (30.6)
3800m - 4:54.33 - (30.4)
4200m - 5:24.76 - (30.4)
4600m - 5:55.34 - (30.5)
5000m - 6:26.37 - (31.0)
8.78 45
7 81 Seung-Hoon  Lee KOR KOR 6:26.39200m - 19.44 - (19.4)
600m - 49.60 - (30.1)
1000m - 1:20.09 - (30.4)
1400m - 1:50.81 - (30.7)
1800m - 2:21.34 - (30.5)
2200m - 2:52.15 - (30.8)
2600m - 3:22.85 - (30.7)
3000m - 3:53.83 - (30.9)
3400m - 4:24.75 - (30.9)
3800m - 4:55.67 - (30.9)
4200m - 5:26.58 - (30.9)
4600m - 5:56.63 - (30.0)
5000m - 6:26.39 - (29.7)
8.80 40
8 117 Jan  Szymanski POL POL 6:27.72200m - 18.95 - (18.9)
600m - 48.88 - (29.9)
1000m - 1:19.91 - (31.0)
1400m - 1:50.31 - (30.4)
1800m - 2:21.29 - (30.9)
2200m - 2:51.98 - (30.6)
2600m - 3:23.21 - (31.2)
3000m - 3:54.13 - (30.9)
3400m - 4:25.13 - (31.0)
3800m - 4:56.13 - (31.0)
4200m - 5:26.26 - (30.1)
4600m - 5:56.69 - (30.4)
5000m - 6:27.72 - (31.0)
10.13 35
9 37 Patrick  Beckert GER GER 6:28.16200m - 19.61 - (19.6)
600m - 49.33 - (29.7)
1000m - 1:19.63 - (30.3)
1400m - 1:49.99 - (30.3)
1800m - 2:20.27 - (30.2)
2200m - 2:50.74 - (30.4)
2600m - 3:21.56 - (30.8)
3000m - 3:52.86 - (31.3)
3400m - 4:23.95 - (31.0)
3800m - 4:55.18 - (31.2)
4200m - 5:26.14 - (30.9)
4600m - 5:57.27 - (31.1)
5000m - 6:28.16 - (30.8)
10.57 30
10 9 Ted-Jan  Bloemen CAN CAN 6:29.89200m - 18.98 - (18.9)
600m - 48.99 - (30.0)
1000m - 1:19.13 - (30.1)
1400m - 1:49.36 - (30.2)
1800m - 2:19.69 - (30.3)
2200m - 2:49.65 - (29.9)
2600m - 3:20.22 - (30.5)
3000m - 3:50.71 - (30.4)
3400m - 4:21.51 - (30.8)
3800m - 4:52.89 - (31.3)
4200m - 5:24.75 - (31.8)
4600m - 5:57.06 - (32.3)
5000m - 6:29.89 - (32.8)
12.30 25
11 50 Andrea  Giovannini ITA ITA 6:33.13200m - 19.59 - (19.5)
600m - 50.25 - (30.6)
1000m - 1:22.07 - (31.8)
1400m - 1:53.43 - (31.3)
1800m - 2:24.49 - (31.0)
2200m - 2:55.59 - (31.1)
2600m - 3:26.67 - (31.0)
3000m - 3:57.94 - (31.2)
3400m - 4:28.96 - (31.0)
3800m - 4:59.95 - (30.9)
4200m - 5:31.03 - (31.0)
4600m - 6:02.15 - (31.1)
5000m - 6:33.13 - (30.9)
15.54 21
12 129 Yevgeny  Seryaev RUS RUS 6:33.14200m - 19.96 - (19.9)
600m - 50.44 - (30.4)
1000m - 1:20.92 - (30.4)
1400m - 1:51.87 - (30.9)
1800m - 2:22.55 - (30.6)
2200m - 2:53.28 - (30.7)
2600m - 3:23.96 - (30.6)
3000m - 3:54.90 - (30.9)
3400m - 4:26.07 - (31.1)
3800m - 4:57.42 - (31.3)
4200m - 5:29.28 - (31.8)
4600m - 6:01.37 - (32.0)
5000m - 6:33.14 - (31.7)
15.55 18
13 130 Danil  Sinitsyn RUS RUS 6:33.25200m - 19.66 - (19.6)
600m - 49.48 - (29.8)
1000m - 1:20.33 - (30.8)
1400m - 1:51.05 - (30.7)
1800m - 2:22.07 - (31.0)
2200m - 2:53.12 - (31.0)
2600m - 3:24.21 - (31.0)
3000m - 3:55.22 - (31.0)
3400m - 4:26.68 - (31.4)
3800m - 4:58.07 - (31.3)
4200m - 5:30.07 - (32.0)
4600m - 6:01.97 - (31.9)
5000m - 6:33.25 - (31.2)
15.66 16
14 36 Alexej  Baumgärtner GER GER 6:33.43200m - 19.39 - (19.3)
600m - 49.73 - (30.3)
1000m - 1:21.08 - (31.3)
1400m - 1:52.31 - (31.2)
1800m - 2:23.17 - (30.8)
2200m - 2:54.51 - (31.3)
2600m - 3:25.71 - (31.2)
3000m - 3:57.00 - (31.2)
3400m - 4:28.20 - (31.2)
3800m - 4:59.73 - (31.5)
4200m - 5:31.21 - (31.4)
4600m - 6:02.64 - (31.4)
5000m - 6:33.43 - (30.7)
15.84 14
15 128 Danila  Semerikov RUS RUS 6:37.09200m - 19.32 - (19.3)
600m - 50.22 - (30.9)
1000m - 1:21.90 - (31.6)
1400m - 1:53.75 - (31.8)
1800m - 2:25.44 - (31.6)
2200m - 2:56.90 - (31.4)
2600m - 3:28.31 - (31.4)
3000m - 3:59.90 - (31.5)
3400m - 4:31.27 - (31.3)
3800m - 5:02.53 - (31.2)
4200m - 5:33.85 - (31.3)
4600m - 6:05.27 - (31.4)
5000m - 6:37.09 - (31.8)
19.50 12
16 8 Jordan  Belchos CAN CAN 6:42.93200m - 19.15 - (19.1)
600m - 49.41 - (30.2)
1000m - 1:20.49 - (31.0)
1400m - 1:51.40 - (30.9)
1800m - 2:22.55 - (31.1)
2200m - 2:54.14 - (31.5)
2600m - 3:26.03 - (31.8)
3000m - 3:58.42 - (32.3)
3400m - 4:31.02 - (32.6)
3800m - 5:03.54 - (32.5)
4200m - 5:36.66 - (33.1)
4600m - 6:09.65 - (32.9)
5000m - 6:42.93 - (33.2)
25.34 10